Regional Weather Roundup
Issued by NWS State College, PA

Home | Current Version | Previous Version | Graphics & Text | Print | Product List | Glossary On
Versions: 1 2 3 4 5 6 7 8 9 10 11 12 13 14 15 16 17 18 19 20 21 22 23 24 25 26 27 28 29 30 31 32 33 34 35 36 37 38 39 40 41 42 43 44 45 46 47 48 49 50
000
ASUS41 KCTP 311703
RWRCTP

REGIONAL WEATHER ROUNDUP
NATIONAL WEATHER SERVICE STATE COLLEGE PA
100 PM EDT MON AUG 31 2015

Note: "fair" indicates few or no clouds below 12,000 feet with no
significant weather and/or obstructions to visibility.

* = STATION THAT DOES NOT REPORT PRECIPITATION /E.G. RAIN...SNOW...ETC/
    THUNDER OR FOG.

PAZ002>004-007>009-013>016-020>023-029>032-311800-
WESTERN PENNSYLVANIA

CITY           SKY/WX    TMP DP  RH WIND       PRES   REMARKS
ERIE           SUNNY     79  68  69 W10       30.09F
MEADVILLE      SUNNY     81  67  62 W12       30.12F
FRANKLIN*      CLOUDY    81  68  65 W7        30.14F
NEW CASTLE     PTSUNNY   82  70  67 CALM      30.12F
BEAVER COUNTY  MOSUNNY   82  68  61 CALM      30.13F
BUTLER*        CLOUDY    81  66  61 CALM      30.14F
PITTSBURGH INT MOSUNNY   85  64  49 SW8       30.12F
PITTSBURGH     SUNNY     83  60  45 VRB3      30.12F
INDIANA*       MOSUNNY   82  68  61 SW8       30.16F
LATROBE        PTSUNNY   82  68  61 W9        30.13F
WASHINGTON CO* PTSUNNY   84  66  54 W5        30.15
$$

PAZ004>006-010>012-017>019-024>028-033>037-041-042-045-046-049>053-311800-
CENTRAL PENNSYLVANIA

CITY           SKY/WX    TMP DP  RH WIND       PRES   REMARKS
BRADFORD       MOSUNNY   80  63  55 W10       30.14S
DUBOIS         MOSUNNY   83  66  56 W10       30.13F
CLEARFIELD       N/A     82  68  62 MISG      30.13
JOHNSTOWN      MOSUNNY   76  64  66 VRB3      30.17F
ALTOONA        LGT RAIN  72  67  84 E3        30.13F
STATE COLLEGE  MOSUNNY   82  66  57 W5        30.11F
WILLIAMSPORT   PTSUNNY   82  68  62 W6        30.06F
SELINSGROVE    MOSUNNY   85  70  60 CALM      30.07F
FT INDIANTOWN  PTSUNNY   86  67  52 VRB6      30.07F
CAPITAL CITY   PTSUNNY   86  67  52 W8        30.06F
HARRISBURG     PTSUNNY   86  67  52 VRB3      30.06F
YORK           PTSUNNY   83  69  62 CALM      30.08F
$$

PAZ038>040-043-044-047-048-054-055-060>062-067>071-311800-
EASTERN PENNSYLVANIA

CITY           SKY/WX    TMP DP  RH WIND       PRES   REMARKS
SCRANTON       LGT RAIN  81  69  67 W8        30.07F
MOUNT POCONO   PTSUNNY   78  66  66 NW9       30.12F
ALLENTOWN      PTSUNNY   87  70  56 W7        30.05F
QUAKERTOWN*    PTSUNNY   84  70  61 SW5       30.08F
READING        PTSUNNY   86  68  54 W7        30.06F
LANCASTER      PTSUNNY   83  68  60 NW5       30.07F
COATESVILLE    PTSUNNY   84  68  58 W7        30.10F
POTTSTOWN      CLOUDY    83  70  64 VRB5      30.08F
BLUE BELL      PTSUNNY   86  70  58 NW3       30.06F
DOYLESTOWN     CLOUDY    82  67  60 SW7       30.06F
WILLOW GROVE   NOT AVBL
NORTH PHILA    PTSUNNY   88  65  46 VRB5      30.06F
PHILADELPHIA   PTSUNNY   90  65  43 SW9       30.05F
$$



USA.gov is the U.S. government's official web portal to all federal, state and local government web resources and services.